Flag for Czech Republic Weather past 2 weeks in Ostrava, Czech Republic

Now
41 °F

Light rain. Overcast.


Feels Like: 37 °F
Forecast: 40 / 54 °F
Wind: 6 mph from North

Location: Ostrava / Mosnov

Current Time: Apr 28, 2015 at 10:57:28 PM

Latest Report: Apr 28, 2015 at 10:00 PM


Visibility: 6 mi

Pressure: 30.01 "Hg

Humidity: 87%

Dew point: 38 °F

Location of OstravaLocation

Historic Weather in Ostrava — Graph

°F

Ostrava temperature yesterday

Maximum temperature yesterday: 73 °F (at 1:00 PM)
Minimum temperature yesterday: 44 °F (at 5:00 AM)
Average temperature yesterday: 60 °F

Past Weeks' High & Low Weather Summary

 TemperatureHumidityPressure
High73 °F (Apr 27, 1:00 PM)97% (Apr 27, 6:00 AM)30.39 "Hg (Apr 27, 6:00 AM)
Low33 °F (Apr 14, 3:00 AM)21% (Apr 21, 3:00 PM)29.58 "Hg (Apr 27, 7:00 PM)
Average52 °F58%30.01 "Hg
* Reported Apr 13 9:00 PM — Apr 28 9:00 PM, Ostrava, Weather by CustomWeather, © 2015

Note: Actual official high and low records may vary slightly from our data, if they occured in-between our weather recording intervals... More about our weather records

Advertising

Ostrava weather history for previous 24 hours

 ConditionsComfort  
Time TempWeatherWind HumidityBarometerVisibility
9:00 PM
Tue, Apr 28
43 °FRain. Overcast.5 mph88%29.96 "Hg4 mi
8:00 PM44 °FLight rain. Overcast.5 mph88%29.91 "Hg6 mi
7:00 PM46 °FLight rain. Overcast.7 mph84%29.85 "Hg9 mi
6:00 PM47 °FLow clouds.7 mph90%29.80 "Hg12 mi
5:00 PM51 °FSprinkles. Low clouds.8 mph90%29.74 "Hg7 mi
4:00 PM54 °FOvercast.6 mph88%29.71 "Hg9 mi
3:00 PM58 °FOvercast.6 mph88%29.69 "Hg7 mi
2:00 PM57 °FRain. Overcast.3 mph93%29.69 "Hg3 mi
1:00 PM60 °FThundershowers. Overcast.5 mph83%29.66 "Hg6 mi
12:00 PM62 °FOvercast.5 mph72%29.64 "Hg7 mi
11:00 AM61 °FSprinkles. Overcast.5 mph74%29.63 "Hg9 mi
10:00 AM63 °FPartly sunny.6 mph64%29.61 "Hg11 mi
9:00 AM64 °FScattered clouds.5 mph64%29.60 "Hg25 mi
8:00 AM57 °FScattered clouds.2 mph76%29.61 "Hg25 mi
7:00 AM51 °FPassing clouds.1 mph88%29.61 "Hg25 mi
6:00 AM52 °FPassing clouds.N/A84%29.60 "Hg25 mi
5:00 AM52 °FPassing clouds.N/A84%29.61 "Hg19 mi
4:00 AM55 °FPassing clouds.N/A73%29.60 "Hg12 mi
3:00 AM57 °FPassing clouds.N/A66%29.60 "Hg12 mi
2:00 AM57 °FPassing clouds.N/A66%29.60 "Hg12 mi
1:00 AM64 °FPassing clouds.7 mph55%29.59 "Hg12 mi
12:00 AM65 °FPassing clouds.6 mph49%29.59 "Hg12 mi
10:00 PM
Mon, Apr 27
67 °FPassing clouds.5 mph43%29.60 "Hg12 mi
Weather by CustomWeather, © 2015

See weather overviewHow to use our weather pages